LROP Weather Reports


time (UTC)temp
C
wind
direction
speed
KPH
gust
KPH
rain 1hr
cm
rain 24hr
cm
rain mn
cm
humidity
%
barometer
mb
20260504120301 21 80 8.0 0.0 0.00 0.00 0.00 38 1015.0
20260504110302 20 3.2 0.0 0.00 0.00 0.00 35 1016.0
20260504100302 20 1.6 0.0 0.00 0.00 0.00 38 1016.0
20260504081802 17 260 8.0 0.0 0.00 0.00 0.00 43 1017.0
20260504080301 17 260 8.0 0.0 0.00 0.00 0.00 43 1017.0
20260504070303 16 260 4.8 0.0 0.00 0.00 0.00 48 1017.0
20260504050312 8 290 11.3 0.0 0.00 0.00 0.00 71 1017.0
20260504044802 7 280 8.0 0.0 0.00 0.00 0.00 76 1017.0
20260504043302 7 280 8.0 0.0 0.00 0.00 0.00 76 1017.0
20260504041802 6 260 8.0 0.0 0.00 0.00 0.00 81 1017.0
20260504040302 6 260 8.0 0.0 0.00 0.00 0.00 81 1017.0
20260504034802 3 270 11.3 0.0 0.00 0.00 0.00 93 1017.0
20260504033302 3 270 11.3 0.0 0.00 0.00 0.00 93 1017.0
20260504031802 3 270 12.9 0.0 0.00 0.00 0.00 93 1017.0
20260504030416 3 270 12.9 0.0 0.00 0.00 0.00 93 1017.0
20260504024802 3 270 12.9 0.0 0.00 0.00 0.00 87 1017.0
20260504023302 3 270 12.9 0.0 0.00 0.00 0.00 87 1017.0
20260504021801 3 280 12.9 0.0 0.00 0.00 0.00 87 1018.0
20260504020302 3 280 12.9 0.0 0.00 0.00 0.00 87 1018.0
20260504014802 5 270 14.5 0.0 0.00 0.00 0.00 81 1018.0
20260504013307 5 270 14.5 0.0 0.00 0.00 0.00 81 1018.0
20260504011915 5 270 16.1 0.0 0.00 0.00 0.00 81 1018.0
20260504010302 5 270 16.1 0.0 0.00 0.00 0.00 81 1018.0
20260504004916 5 260 11.3 0.0 0.00 0.00 0.00 87 1018.0
20260504003301 5 260 11.3 0.0 0.00 0.00 0.00 87 1018.0
20260504001802 5 280 9.7 0.0 0.00 0.00 0.00 81 1018.0
20260504000302 5 280 9.7 0.0 0.00 0.00 0.00 81 1018.0
20260503234841 5 300 11.3 0.0 0.00 0.00 0.00 87 1018.0
20260503233302 5 300 11.3 0.0 0.00 0.00 0.00 87 1018.0
20260503231805 6 300 12.9 0.0 0.00 0.00 0.00 81 1018.0
20260503230314 6 300 12.9 0.0 0.00 0.00 0.00 81 1018.0
20260503224802 6 300 12.9 0.0 0.00 0.00 0.00 81 1018.0
20260503223314 6 300 12.9 0.0 0.00 0.00 0.00 81 1018.0
20260503221818 6 290 12.9 0.0 0.00 0.00 0.00 81 1019.0
20260503220344 6 290 12.9 0.0 0.00 0.00 0.00 81 1019.0
20260503214809 6 270 12.9 0.0 0.00 0.00 0.00 81 1019.0
20260503213302 6 270 12.9 0.0 0.00 0.00 0.00 81 1019.0
20260503211802 7 280 11.3 0.0 0.00 0.00 0.00 76 1019.0
20260503210302 7 280 11.3 0.0 0.00 0.00 0.00 76 1019.0
20260503204809 7 280 12.9 0.0 0.00 0.00 0.00 76 1019.0
20260503203415 7 280 12.9 0.0 0.00 0.00 0.00 76 1019.0
20260503201802 7 270 11.3 0.0 0.00 0.00 0.00 66 1019.0
20260503200311 7 270 11.3 0.0 0.00 0.00 0.00 66 1019.0
20260503194826 8 270 8.0 0.0 0.00 0.00 0.00 62 1020.0
20260503193416 8 270 8.0 0.0 0.00 0.00 0.00 62 1020.0
20260503191802 10 0 0.0 0.0 0.00 0.00 0.00 50 1019.0
20260503190302 10 0 0.0 0.0 0.00 0.00 0.00 50 1019.0
20260503184915 11 0 0.0 0.0 0.00 0.00 0.00 50 1019.0
20260503183301 11 0 0.0 0.0 0.00 0.00 0.00 50 1019.0
20260503181802 11 140 3.2 0.0 0.00 0.00 0.00 47 1019.0
20260503180301 11 140 3.2 0.0 0.00 0.00 0.00 47 1019.0
20260503174822 11 110 4.8 0.0 0.00 0.00 0.00 50 1019.0
20260503173326 11 110 4.8 0.0 0.00 0.00 0.00 50 1019.0
20260503171802 12 100 3.2 0.0 0.00 0.00 0.00 47 1019.0
20260503170302 12 100 3.2 0.0 0.00 0.00 0.00 47 1019.0
20260503150302 16 230 4.8 0.0 0.00 0.00 0.00 34 1019.0
20260503140309 15 70 14.5 0.0 0.00 0.00 0.00 31 1020.0
20260503130302 15 110 9.7 0.0 0.00 0.00 0.00 31 1021.0